"TOA5","AWS1","CR1000","7964","CR1000.Std.14","CPU:AWS1_114.CR1","64363","TBL110"
"TIMESTAMP","RECORD","Wind_spd_WVc(1)","Wind_spd_WVc(2)","Air_Temp_Avg","Humidity_Avg","SW_upper_Wm2_Avg","Rain_Tot","Press_Avg","Issui_Tot","Depth_cm","SR50A_Raw","Quality","Ground_Temp_Avg(1)","Ground_Temp_Avg(2)","SW_lower_Wm2_Avg","Albedo_Avg","SWC_per(1)","SWC_per(2)","Period(1)","Period(2)"
"TS","RN","","","","","","","","","","","","","","","","","","",""
"","","WVc","WVc","Avg","Avg","Avg","Tot","Avg","Tot","Smp","Smp","Smp","Avg","Avg","Avg","Avg","Smp","Smp","Smp","Smp"
"2017-11-21 00:00:00",315421,1.18,272.6,-4.387,91.2,0.03932969,0.5,865.6449,0,11.24,3.093,187,4.385,5.485,0,0,52.05,59.56,33.8,35.58
"2017-11-21 00:10:00",315422,1.101,261.9,-4.559,90.5,0.05112859,0,865.8873,0,11.29,3.093,192,4.395,5.468,0,0,52.05,59.61,33.8,35.59
"2017-11-21 00:20:00",315423,1.137,352.4,-4.629,88.3,0,0.5,866.0327,0,10.47,3.102,193,4.399,5.448,0.04171343,0,52.05,59.56,33.8,35.58
"2017-11-21 00:30:00",315424,0.936,252.7,-4.727,91,0,0,866.0496,0,10.57,3.101,192,4.399,5.453,0.03033704,0,52.05,59.56,33.8,35.58
"2017-11-21 00:40:00",315425,0.622,236.3,-4.733,90.5,0.003932996,0.5,866.0727,0,10.55,3.102,187,4.399,5.452,0.02654491,0,51.99,59.56,33.79,35.58
"2017-11-21 00:50:00",315426,0.867,214.9,-4.828,88.7,0,0,866.0601,0,10.55,3.102,195,4.402,5.482,0.1175576,0,52.05,59.56,33.8,35.58
"2017-11-21 01:00:00",315427,0.822,288.4,-4.824,88.8,0,0,866.098,0,10.64,3.101,194,4.402,5.505,0.1668558,0,52.05,59.56,33.8,35.58
"2017-11-21 01:10:00",315428,0.556,299.5,-4.885,90.6,0,0.5,866.1718,0,11.92,3.089,205,4.417,5.52,0.1175618,0,52.05,59.56,33.8,35.58
"2017-11-21 01:20:00",315429,0.465,263.4,-4.914,92.6,0,0,866.1907,0.5,12.76,3.08,201,4.43,5.53,0,0,52.05,59.56,33.8,35.58
"2017-11-21 01:30:00",315430,0.621,6.09,-4.899,91.9,0,0,866.313,0.5,13.5,3.073,213,4.437,5.534,0.06068293,0,51.99,59.5,33.79,35.56
"2017-11-21 01:40:00",315431,0.937,330.3,-5.018,91.3,0.05900449,0,866.4648,0,13.34,3.075,192,4.44,5.536,0,0,52.05,59.56,33.8,35.58
"2017-11-21 01:50:00",315432,1.304,301.7,-5.103,90.8,0.01966846,0.5,866.6208,0,13.29,3.076,189,4.431,5.529,0.003792811,0,52.05,59.5,33.8,35.56
"2017-11-21 02:00:00",315433,0.751,307.6,-5.19,90.9,0,0.5,866.7872,0,13.29,3.077,186,4.432,5.5,0,0,51.99,59.5,33.79,35.56
"2017-11-21 02:10:00",315434,0.658,148.8,-5.211,90.7,0,0,866.6481,0,13.16,3.078,189,4.426,5.498,0,0,52.05,59.5,33.8,35.56
"2017-11-21 02:20:00",315435,0.468,289.1,-5.212,90.7,0,0,866.7894,0,13.13,3.078,190,4.429,5.504,0,0,52.05,59.5,33.8,35.56
"2017-11-21 02:30:00",315436,0.69,239.1,-5.241,90.8,0,0,866.8121,0,12.81,3.082,192,4.408,5.505,0.0379305,0,52.05,59.5,33.8,35.56
"2017-11-21 02:40:00",315437,0.742,183.2,-5.273,90.1,0,0.5,866.6721,0,12.59,3.084,192,4.406,5.502,0,0,52.05,59.5,33.8,35.56
"2017-11-21 02:50:00",315438,0.984,211,-5.324,90.1,0,0,866.7411,0,12.63,3.084,188,4.389,5.511,0.07207123,0,52.05,59.5,33.8,35.56
"2017-11-21 03:00:00",315439,0.824,196.2,-5.296,89.3,0,0,866.6497,0,12.58,3.084,187,4.394,5.516,0.04551907,0,52.05,59.5,33.8,35.56
"2017-11-21 03:10:00",315440,0.325,272.4,-5.226,89.4,0,0,867.0237,0,12.53,3.084,192,4.396,5.518,0.1479388,0,51.99,59.5,33.79,35.56
"2017-11-21 03:20:00",315441,0.348,234,-5.221,89.4,0,0.5,867.0791,0,12.41,3.086,171,4.401,5.523,0.2276016,0,52.05,59.5,33.8,35.56
"2017-11-21 03:30:00",315442,0.741,291.3,-5.254,89.1,0,0,867.1359,0,12.28,3.087,171,4.398,5.523,0.2276014,0,52.05,59.5,33.8,35.56
"2017-11-21 03:40:00",315443,0.445,259.3,-5.23,89.2,0,0,867.2805,0,12.63,3.083,184,4.401,5.526,0.22381,0,51.99,59.5,33.79,35.56
"2017-11-21 03:50:00",315444,0.663,270.6,-5.24,90.3,0,0,867.4873,0,12.58,3.084,172,4.409,5.527,0.1403562,0,51.99,59.5,33.79,35.56
"2017-11-21 04:00:00",315445,0.52,332.8,-5.255,89.7,0,0,867.6373,0,12.77,3.082,181,4.412,5.528,0.1744975,0,51.99,59.5,33.79,35.56
"2017-11-21 04:10:00",315446,0.66,260.7,-5.264,89.9,0,0.5,867.6617,0,12.8,3.082,177,4.407,5.528,0.07586853,0,51.99,59.5,33.79,35.56
"2017-11-21 04:20:00",315447,0.62,270,-5.335,89.3,0,0,867.7037,0,13.02,3.08,198,4.415,5.528,0,0,51.99,59.5,33.79,35.56
"2017-11-21 04:30:00",315448,0.694,241.1,-5.361,90,0,0,867.7213,0.5,12.72,3.083,187,4.411,5.528,0.003793427,0,51.99,59.5,33.79,35.56
"2017-11-21 04:40:00",315449,0.671,183.1,-5.427,91.2,0,0,867.6688,0,12.62,3.085,190,4.424,5.528,0,0,51.99,59.5,33.79,35.56
"2017-11-21 04:50:00",315450,0.779,232.2,-5.522,92.6,0,0,867.8111,0,12.23,3.089,190,4.425,5.528,0,0,51.99,59.44,33.79,35.55
"2017-11-21 05:00:00",315451,0.758,220.6,-5.52,91.3,0,0,868.0754,0,12.13,3.09,190,4.438,5.528,0,0,51.99,59.44,33.79,35.55
"2017-11-21 05:10:00",315452,0.985,184.3,-5.54,90.5,0,0,868.1238,0,12.03,3.091,181,4.443,5.532,0.1100094,0,51.99,59.5,33.79,35.56
"2017-11-21 05:20:00",315453,1.026,199.8,-5.479,89.5,0,0,868.188,0,11.96,3.092,190,4.445,5.532,0.1631174,0,51.99,59.5,33.79,35.56
"2017-11-21 05:30:00",315454,0.876,245.9,-5.517,88.9,0,0,868.319,0,11.76,3.094,190,4.447,5.542,0,0,51.99,59.44,33.79,35.55
"2017-11-21 05:40:00",315455,0.959,238.6,-5.627,88.6,0,0.5,868.4476,0,11.83,3.094,190,4.463,5.554,0,0,51.99,59.44,33.79,35.55
"2017-11-21 05:50:00",315456,0.926,226.9,-5.724,88,0,0,868.5236,0,11.91,3.093,190,4.479,5.568,0,0,51.99,59.44,33.79,35.55
"2017-11-21 06:00:00",315457,1.228,257.6,-5.661,84.2,0,0,868.65,0,13.89,3.073,185,4.484,5.571,0.003793427,0,51.99,59.44,33.79,35.55
"2017-11-21 06:10:00",315458,1.351,281.7,-5.667,82.5,0,0,868.7217,0,14.08,3.071,186,4.487,5.572,0.07586853,0,51.99,59.5,33.79,35.56
"2017-11-21 06:20:00",315459,0.775,232.2,-5.875,83.7,0,0,868.8947,0,14.23,3.071,192,4.488,5.571,0.007586854,0,51.99,59.5,33.79,35.56
"2017-11-21 06:30:00",315460,0.992,276,-5.837,80.7,0,0,868.882,0,14.26,3.069,186,4.482,5.6,1.005258,0,51.99,59.5,33.79,35.56
"2017-11-21 06:40:00",315461,1.239,257.5,-5.633,76.95,0.03147451,0,868.7006,0,14.13,3.071,170,4.481,5.577,2.814723,2.041,51.99,59.44,33.79,35.55
"2017-11-21 06:50:00",315462,0.983,272.9,-5.753,77.29,0.7396509,0,868.7238,0,14.06,3.072,182,4.484,5.562,4.643155,7.276,51.99,59.44,33.79,35.55
"2017-11-21 07:00:00",315463,0.861,291.4,-6.016,79.99,1.628806,0,868.8461,0,14.11,3.073,188,4.441,5.565,6.543662,4.197,51.94,59.5,33.77,35.56
"2017-11-21 07:10:00",315464,0.885,212.5,-6.031,79.66,2.478617,0,869.0739,0,13.96,3.075,170,4.424,5.549,9.153539,3.747,51.99,59.44,33.79,35.55
"2017-11-21 07:20:00",315465,0.592,180.5,-6.345,82.1,3.529079,0,869.2003,0,13.98,3.077,170,4.425,5.533,11.68755,3.324,51.99,59.44,33.79,35.55
"2017-11-21 07:30:00",315466,0.612,190.6,-6.471,83.5,4.292336,0,869.3732,0,13.81,3.08,170,4.405,5.527,14.16845,3.312,51.99,59.44,33.79,35.55
"2017-11-21 07:40:00",315467,0.15,194.3,-6.51,85.5,10.51249,0,869.4554,0,14.01,3.075,170,4.412,5.527,35.64684,3.385,51.99,59.44,33.79,35.55
"2017-11-21 07:50:00",315468,0.42,168.6,-5.79,81.6,15.93397,0,869.5334,0,13.61,3.075,170,4.449,5.525,47.70993,3.225,51.99,59.44,33.79,35.55
"2017-11-21 08:00:00",315469,0.491,159.9,-5.416,80.1,21.03284,0,869.7254,0,13.99,3.07,169,4.486,5.527,55.55853,2.752,51.94,59.44,33.77,35.55
"2017-11-21 08:10:00",315470,0.509,159.6,-4.894,78.11,16.23298,0,869.9509,0,13.77,3.069,169,4.461,5.552,62.74707,3.918,51.94,59.38,33.77,35.54
"2017-11-21 08:20:00",315471,0.367,157.1,-4.651,75.91,15.42251,0,869.9615,0,13.79,3.068,168,4.445,5.544,64.31755,4.173,51.99,59.44,33.79,35.55
"2017-11-21 08:30:00",315472,0.784,165.2,-4.393,73.57,16.48477,0,869.9509,0,14.15,3.062,190,4.414,5.528,65.19762,3.956,51.99,59.38,33.79,35.54
"2017-11-21 08:40:00",315473,0.335,172.5,-4.139,72.54,18.44013,0,869.9003,0,13.63,3.066,189,4.403,5.528,65.51627,3.568,51.99,59.44,33.79,35.55
"2017-11-21 08:50:00",315474,0.452,173.7,-3.882,72.42,18.49127,0,869.7296,0,13.83,3.063,190,4.414,5.522,68.39169,3.708,51.94,59.44,33.77,35.55
"2017-11-21 09:00:00",315475,0.387,192.2,-3.827,73.07,28.81491,0,869.757,0,13.33,3.067,190,4.461,5.463,68.75207,2.591,51.99,59.44,33.79,35.55
"2017-11-21 09:10:00",315476,0.606,256.9,-3.813,71.79,20.16336,0,869.953,0,13.78,3.064,189,4.427,5.51,69.78767,3.466,51.94,59.44,33.77,35.55
"2017-11-21 09:20:00",315477,0.319,240.5,-3.658,70.36,19.87615,0,869.9011,0,13.26,3.067,176,4.406,5.532,71.34678,3.59,51.99,59.44,33.79,35.55
"2017-11-21 09:30:00",315478,0.671,272.6,-3.823,70.39,20.49379,0,869.8357,0,13.58,3.066,186,4.403,5.564,75.81145,3.699,51.99,59.44,33.79,35.55
"2017-11-21 09:40:00",315479,0.382,324.6,-3.607,70.31,21.40603,0,869.6523,0,13.64,3.063,185,4.405,5.586,81.59822,3.818,51.94,59.44,33.77,35.55
"2017-11-21 09:50:00",315480,0.423,289.6,-3.361,71.5,20.81923,0,869.6236,0,13.52,3.064,189,4.446,5.6,81.08377,3.898,51.99,59.44,33.79,35.55
"2017-11-21 10:00:00",315481,0.527,302.5,-3.373,72.79,21.57289,0,869.6162,0,13.41,3.065,190,4.45,5.577,86.41776,4.016,51.94,59.44,33.77,35.55
"2017-11-21 10:10:00",315482,0.567,319.3,-3.415,72.7,21.17796,0,869.6144,0,13.47,3.066,189,4.444,5.56,92.34702,4.36,51.94,59.44,33.77,35.55
"2017-11-21 10:20:00",315483,0.368,343.4,-3.571,77.63,23.13116,0,869.6097,0,13.63,3.063,190,4.447,5.54,98.85921,4.32,51.94,59.44,33.77,35.55
"2017-11-21 10:30:00",315484,0.467,345.1,-3.281,78.62,43.37369,0,869.7087,0,12.99,3.067,181,4.465,5.527,116.6712,2.991,51.94,59.38,33.77,35.54
"2017-11-21 10:40:00",315485,0.402,301.9,-3.217,80.9,67.72624,0,869.8668,0,13.19,3.066,181,4.487,5.524,162.7935,2.689,51.99,59.44,33.79,35.55
"2017-11-21 10:50:00",315486,0.576,321.6,-3.234,81,46.75918,0,869.8668,0,13.24,3.066,189,4.485,5.502,182.3943,4.167,51.94,59.38,33.77,35.54
"2017-11-21 11:00:00",315487,0.478,311.8,-3.329,82.8,46.97937,0,869.8668,0,13.14,3.067,180,4.454,5.46,210.7175,4.491,51.99,59.38,33.79,35.54
"2017-11-21 11:10:00",315488,0.414,340.6,-3.067,81.9,84.23641,0,869.8625,0,12.94,3.066,189,4.401,5.5,246.9134,3.194,51.94,59.38,33.77,35.54
"2017-11-21 11:20:00",315489,0.693,337.6,-2.609,77.55,41.88614,0,869.8604,0,12.95,3.064,185,4.426,5.529,255.2863,6.375,51.94,59.38,33.77,35.54
"2017-11-21 11:30:00",315490,1.136,358.9,-2.392,73.64,46.66121,0,869.8162,0,12.87,3.065,189,4.464,5.543,252.653,5.692,51.94,59.38,33.77,35.54
"2017-11-21 11:40:00",315491,0.677,330.1,-2.335,76.68,75.49716,0,869.7939,0,12.74,3.065,190,4.455,5.5,264.2778,3.662,51.94,59.38,33.77,35.54
"2017-11-21 11:50:00",315492,0.727,6.845,-2.089,74.68,75.12513,0,869.6289,0,12.83,3.063,187,4.43,5.453,276.7971,3.779,51.94,59.38,33.77,35.54
"2017-11-21 12:00:00",315493,0.361,245.5,-1.569,75.21,98.85812,0,869.4681,0,12.8,3.058,189,4.405,5.439,276.2988,2.803,51.94,59.38,33.77,35.54
"2017-11-21 12:10:00",315494,0.671,313.7,-1.532,74.46,92.15165,0,869.3752,0,12.78,3.062,189,4.377,5.414,180.7174,2.014,51.94,59.38,33.77,35.54
"2017-11-21 12:20:00",315495,0.496,249.2,-1.519,77.85,134.2898,0,869.1783,0,12.39,3.062,192,4.335,5.384,207.2555,1.586,51.99,59.38,33.79,35.54
"2017-11-21 12:30:00",315496,0.48,68.74,-1.451,78.63,99.03199,0,869.0627,0,12.64,3.061,182,4.279,5.401,177.5253,1.947,51.99,59.38,33.79,35.54
"2017-11-21 12:40:00",315497,0.552,290.2,-1.387,76.96,133.9303,0,868.9211,0,12.51,3.063,190,4.27,5.394,161.4292,1.266,51.94,59.38,33.77,35.54
"2017-11-21 12:50:00",315498,0.416,336.1,-1.54,78.49,159.2834,0,868.7147,0,12.79,3.061,189,4.268,5.39,150.2599,0.968,51.94,59.38,33.77,35.54
"2017-11-21 13:00:00",315499,0.476,329.1,-1.581,79.59,61.74486,0,868.6367,0,12.66,3.063,189,4.281,5.386,126.1919,2.17,51.94,59.38,33.77,35.54
"2017-11-21 13:10:00",315500,0.337,323.6,-1.739,81.6,92.9277,0,868.5209,0,12.86,3.062,190,4.3,5.374,115.9942,1.502,51.94,59.38,33.77,35.54
"2017-11-21 13:20:00",315501,0.427,319.6,-1.949,82.9,118.9108,0,868.5693,0,12.6,3.066,190,4.307,5.347,97.5315,0.909,51.94,59.38,33.77,35.54
"2017-11-21 13:30:00",315502,0.304,332.6,-2.165,83.7,48.9478,0,868.6703,0,12.8,3.064,191,4.312,5.347,66.8703,1.369,51.94,59.38,33.77,35.54
"2017-11-21 13:40:00",315503,0.306,349.5,-1.781,84.1,70.33641,0,868.6725,0,12.56,3.065,190,4.317,5.351,114.5769,1.665,51.94,59.38,33.77,35.54
"2017-11-21 13:50:00",315504,0.286,311.4,-2.043,85.1,39.96709,0,868.6746,0,12.48,3.067,181,4.33,5.361,65.43027,1.642,51.88,59.38,33.76,35.54
"2017-11-21 14:00:00",315505,0.241,350.1,-2.144,86.4,40.19505,0,868.6703,0,12.53,3.066,186,4.353,5.382,70.81142,1.749,51.94,59.38,33.77,35.54
"2017-11-21 14:10:00",315506,0.426,20.54,-1.825,85.8,44.52229,0,868.5272,0,12.53,3.066,189,4.353,5.382,85.98476,1.903,51.94,59.38,33.77,35.54
"2017-11-21 14:20:00",315507,0.478,302.3,-2.035,87.6,40.00691,0,868.582,0,12.65,3.065,190,4.359,5.391,70.1454,1.754,51.94,59.38,33.77,35.54
"2017-11-21 14:30:00",315508,0.4,332.4,-1.967,89.1,27.49032,0,868.7209,0,12.49,3.066,190,4.388,5.413,51.91653,1.885,51.88,59.38,33.76,35.54
"2017-11-21 14:40:00",315509,0.236,287.4,-1.967,89.8,25.12319,0,868.9127,0,12.52,3.066,190,4.387,5.466,54.67454,2.181,51.94,59.32,33.77,35.52
"2017-11-21 14:50:00",315510,0.212,325.6,-1.993,89.6,21.54793,0,869.1359,0,12.17,3.069,191,4.384,5.495,53.49682,2.483,51.94,59.32,33.77,35.52
"2017-11-21 15:00:00",315511,0.266,349.9,-1.986,91,23.26687,0,869.3249,0,12.21,3.069,186,4.388,5.514,58.62782,2.521,51.94,59.32,33.77,35.52
"2017-11-21 15:10:00",315512,0.388,301,-2.081,90.8,18.37631,0,869.4701,0,12.18,3.071,170,4.386,5.507,45.9598,2.501,51.88,59.32,33.76,35.52
"2017-11-21 15:20:00",315513,0.486,293.7,-2.342,91.2,16.92562,0,869.512,0,12.13,3.072,170,4.38,5.48,40.09181,2.371,51.88,59.32,33.76,35.52
"2017-11-21 15:30:00",315514,0.282,326.1,-2.292,91.6,10.85129,0,869.7058,0,12.16,3.071,169,4.33,5.452,26.30081,2.424,51.94,59.32,33.77,35.52
"2017-11-21 15:40:00",315515,0.129,278.7,-2.221,91.9,8.240689,0,869.9771,0,12.18,3.071,183,4.311,5.442,19.75405,2.394,51.94,59.32,33.77,35.52
"2017-11-21 15:50:00",315516,0.237,289.5,-2.28,92.4,6.471457,0,870.0264,0,12.15,3.072,187,4.311,5.436,14.67433,2.267,51.94,59.32,33.77,35.52
"2017-11-21 16:00:00",315517,0.241,300.5,-2.422,92.4,5.543594,0,870.1678,0,12.2,3.072,186,4.332,5.425,11.54689,2.082,51.88,59.32,33.76,35.52
"2017-11-21 16:10:00",315518,0.117,350.5,-2.492,92,4.961713,0,870.2795,0,12.05,3.073,183,4.368,5.413,10.26938,2.06,51.94,59.32,33.77,35.52
"2017-11-21 16:20:00",315519,0.122,151.5,-2.327,92.1,3.774362,0,870.2795,0,11.88,3.074,171,4.393,5.424,7.79775,2.073,51.94,59.32,33.77,35.52
"2017-11-21 16:30:00",315520,0.277,103.6,-2.297,91.4,2.82684,0,870.2753,0,11.85,3.075,171,4.395,5.434,4.867434,1.675,51.94,59.32,33.77,35.52
"2017-11-21 16:40:00",315521,0.353,111,-2.387,91.7,1.293505,0,870.2037,0,12,3.074,172,4.395,5.434,0.8036574,0.504,51.88,59.32,33.76,35.52
"2017-11-21 16:50:00",315522,0.137,161.6,-2.476,92.2,0.1336753,0,870.0309,0,11.8,3.076,175,4.395,5.434,0,0,51.88,59.32,33.76,35.52
"2017-11-21 17:00:00",315523,0.029,162.6,-2.659,92.9,0,0,870.0267,0,11.7,3.079,172,4.394,5.434,0,0,51.94,59.32,33.77,35.52
"2017-11-21 17:10:00",315524,0.135,139.4,-2.962,93.6,0,0,870.0057,0,11.78,3.08,172,4.355,5.445,0,0,51.94,59.32,33.77,35.52
"2017-11-21 17:20:00",315525,0.181,167.6,-3.189,94.6,0,0,869.7601,0,11.72,3.082,187,4.291,5.453,0,0,51.94,59.32,33.77,35.52
"2017-11-21 17:30:00",315526,0.075,160,-3.387,95.2,0,0,869.8307,0,11.45,3.086,189,4.301,5.439,0,0,51.94,59.32,33.77,35.52
"2017-11-21 17:40:00",315527,0.439,109.7,-3.52,95.7,0,0,869.7409,0,11.45,3.085,173,4.363,5.442,0,0,51.88,59.32,33.76,35.52
"2017-11-21 17:50:00",315528,0.317,206,-3.425,95.8,0,0,869.7789,0,11.6,3.083,172,4.38,5.455,0,0,51.94,59.32,33.77,35.52
"2017-11-21 18:00:00",315529,0.259,290.5,-3.31,93.9,0,0,869.8637,0,11.65,3.082,179,4.393,5.449,0,0,51.94,59.32,33.77,35.52
"2017-11-21 18:10:00",315530,0.028,288.3,-3.62,93.5,0,0,869.8828,0,11.24,3.09,185,4.398,5.437,0,0,51.94,59.32,33.77,35.52
"2017-11-21 18:20:00",315531,0.053,221.3,-4.03,90.9,0,0,870.0731,0,11.02,3.095,183,4.399,5.438,0,0,51.94,59.32,33.77,35.52
"2017-11-21 18:30:00",315532,0.396,192.4,-4.386,90,0,0,870.0183,0,11.44,3.089,190,4.399,5.438,0,0,51.88,59.26,33.76,35.51
"2017-11-21 18:40:00",315533,0.16,193.5,-3.804,88.6,0,0,870.0331,0,11.35,3.087,201,4.394,5.438,0,0,51.88,59.26,33.76,35.51
"2017-11-21 18:50:00",315534,0.233,193.3,-3.894,86.9,0,0,870.0394,0,11.44,3.088,192,4.376,5.438,0,0,51.94,59.32,33.77,35.52
"2017-11-21 19:00:00",315535,0.185,193.3,-3.976,86.8,0,0,869.9297,0,11.14,3.092,180,4.318,5.443,0,0,51.94,59.32,33.77,35.52
"2017-11-21 19:10:00",315536,0.49,192.2,-4.093,88.9,0,0,870.0478,0,11.29,3.09,180,4.321,5.453,0,0,51.88,59.32,33.76,35.52
"2017-11-21 19:20:00",315537,0.179,183,-4.046,89.1,0,0,870.1258,0,11.09,3.092,192,4.328,5.467,0,0,51.88,59.26,33.76,35.51
"2017-11-21 19:30:00",315538,0.064,181.8,-4.036,85.6,0,0,870.1194,0,10.99,3.094,177,4.372,5.496,0,0,51.88,59.26,33.76,35.51
"2017-11-21 19:40:00",315539,0.207,168.9,-3.725,81.7,0,0,870.1194,0,11.09,3.086,187,4.4,5.517,0.3375169,0,51.88,59.26,33.76,35.51
"2017-11-21 19:50:00",315540,0.13,169.5,-2.372,69.66,0,0,870.1194,0,11.93,3.076,173,4.419,5.538,1.78626,0,51.94,59.26,33.77,35.51
"2017-11-21 20:00:00",315541,0.466,283.1,-1.879,63.3,0,0,870.2649,0,10.9,3.076,186,4.428,5.55,2.01393,0,51.88,59.26,33.76,35.51
"2017-11-21 20:10:00",315542,0.26,250.6,-2.029,67.81,0,0,870.5157,0,10.77,3.091,190,4.412,5.542,0.6940823,0,51.94,59.26,33.77,35.51
"2017-11-21 20:20:00",315543,0.083,162.4,-3.472,75.55,0,0,870.6085,0,10.72,3.094,182,4.446,5.567,0,0,51.88,59.26,33.76,35.51
"2017-11-21 20:30:00",315544,0.347,179.1,-4.303,80,0,0,870.6275,0,10.62,3.099,176,4.442,5.559,0,0,51.88,59.26,33.76,35.51
"2017-11-21 20:40:00",315545,0.171,196.2,-3.729,75.44,0,0,870.6356,0,10.82,3.087,177,4.441,5.547,0.2541352,0,51.88,59.26,33.76,35.51
"2017-11-21 20:50:00",315546,0.061,174.4,-2.242,66.58,0,0,870.6798,0,10.31,3.092,183,4.444,5.545,0.9938179,0,51.88,59.26,33.76,35.51
"2017-11-21 21:00:00",315547,0.152,244.5,-2.467,68.87,0,0,870.7489,0,11.06,3.08,189,4.458,5.541,0.7510846,0,51.88,59.26,33.76,35.51
"2017-11-21 21:10:00",315548,0.057,184,-1.684,63.74,0,0,870.7028,0,11.09,3.078,177,4.452,5.538,0.967316,0,51.88,59.26,33.76,35.51
"2017-11-21 21:20:00",315549,0.149,258.4,-2.173,67.62,0,0,870.7189,0,10.04,3.092,181,4.464,5.531,0.5728024,0,51.88,59.26,33.76,35.51
"2017-11-21 21:30:00",315550,0.231,180.4,-3.432,74.56,0,0,870.7568,0,10.85,3.094,181,4.437,5.525,0.01896685,0,51.88,59.26,33.76,35.51
"2017-11-21 21:40:00",315551,0.195,206.7,-3.517,75.11,0,0,870.7692,0,10.82,3.094,187,4.435,5.526,0.05310763,0,51.88,59.26,33.76,35.51
"2017-11-21 21:50:00",315552,0.211,177,-3.909,77.45,0,0,870.7946,0,10.5,3.098,189,4.419,5.527,0,0,51.88,59.26,33.76,35.51
"2017-11-21 22:00:00",315553,0.211,109.3,-3.643,76.53,0,0,870.7103,0,10.53,3.091,182,4.413,5.527,0.4438308,0,51.88,59.26,33.76,35.51
"2017-11-21 22:10:00",315554,0.089,167.6,-3.101,74,0,0,870.7148,0,10.6,3.095,184,4.416,5.523,0.4476243,0,51.88,59.26,33.76,35.51
"2017-11-21 22:20:00",315555,0.387,174.1,-3.916,76.92,0,0,870.718,0,10.6,3.096,186,4.406,5.517,0,0,51.82,59.26,33.75,35.51
"2017-11-21 22:30:00",315556,0.215,167.7,-4.261,79.85,0,0,870.7352,0,10.84,3.097,181,4.406,5.506,0,0,51.88,59.26,33.76,35.51
"2017-11-21 22:40:00",315557,0.269,167.9,-4.193,79.57,0,0,870.7668,0,10.75,3.096,181,4.402,5.484,0.02276056,0,51.88,59.26,33.76,35.51
"2017-11-21 22:50:00",315558,0.423,179.8,-4.17,78.16,0,0,870.887,0,10.75,3.097,189,4.402,5.484,0.04931455,0,51.88,59.26,33.76,35.51
"2017-11-21 23:00:00",315559,0.108,162.6,-3.632,73.58,0,0,870.9714,0,10.15,3.103,180,4.402,5.463,0.1896713,0,51.82,59.26,33.75,35.51
"2017-11-21 23:10:00",315560,0.353,181.7,-4.502,78.84,0,0,870.9714,0,10.55,3.098,184,4.402,5.451,0.05310798,0,51.88,59.26,33.76,35.51
"2017-11-21 23:20:00",315561,0.245,283.4,-2.85,69.28,0,0,871.0009,0,9.69,3.098,177,4.402,5.453,1.536338,0,51.88,59.26,33.76,35.51
"2017-11-21 23:30:00",315562,0.306,341.8,-2.575,69.97,0,0,870.9861,0,10.76,3.087,182,4.402,5.453,1.08492,0,51.88,59.26,33.76,35.51
"2017-11-21 23:40:00",315563,0.224,290.8,-2.076,72.47,0,0,870.9777,0,9.92,3.09,189,4.402,5.477,0.9824976,0,51.82,59.2,33.75,35.5
"2017-11-21 23:50:00",315564,0.074,181,-2.336,75.27,0,0,871.0368,0,10.16,3.094,174,4.402,5.49,0.5841877,0,51.88,59.2,33.76,35.5
